Preview of NWS' New Version of Forecast
This preview is not operational and should not be used for support decisions.

Regional Weather Roundup (RWR)

Issued by National Weather Service (NWS)

                            
000
ASUS46 KPQR 191010
RWROR 

OREGON REGIONAL WEATHER ROUNDUP
NATIONAL WEATHER SERVICE PORTLAND OR
300 AM PDT MON AUG 19 2019

NOTE: "FAIR" INDICATES FEW OR NO CLOUDS BELOW 12,000 FEET WITH
NO SIGNIFICANT WEATHER AND/OR OBSTRUCTIONS TO VISIBILITY.

ORZ001>013-191100-
NORTHWEST OREGON

  
CITY           SKY/WX    TMP DP  RH WIND       PRES   REMARKS
ASTORIA        CLOUDY    55  54  96 SE3       29.95R                  
TILLAMOOK      CLEAR     52  50  93 CALM      29.98R                  
NEWPORT        CLOUDY    54  54 100 CALM      29.99R                  
FLORENCE       FAIR      55  54  94 CALM      29.97R                  
PORTLAND       CLEAR     62  54  74 NW7       29.94R                  
VANCOUVER WA   CLEAR     60  54  80 NW3       29.93R                  
SCAPPOOSE      CLEAR     59  54  83 N6        29.93R                  
HILLSBORO      CLEAR     56  52  86 NW3       29.94R                  
AURORA         CLEAR     60  53  77 N3        29.94R                  
MCMINNVILLE    CLEAR     58  54  86 W3        29.93R                  
SALEM          CLEAR     58  52  80 CALM      29.93R                  
CORVALLIS      CLEAR     59  55  87 W9        29.95R                  
EUGENE         CLEAR     58  53  84 MISG      29.95R                  
CRESWELL       CLEAR     59  54  82 SW5       29.94R                  
$$

ORZ021-028-191100-
SOUTHWEST OREGON

  
CITY           SKY/WX    TMP DP  RH WIND       PRES   REMARKS
NORTH BEND     CLOUDY    62  58  86 N6        29.98S                  
BROOKINGS      LGT RAIN  53  52  96 CALM      29.97R VSB 1/2          
ROSEBURG       CLEAR     61  52  72 CALM      29.95S                  
SEXTON SUMMIT  CLEAR     57  52  83 N5        30.00S                  
GRANTS PASS    FAIR      61  52  72 CALM      29.94S                  
MEDFORD        CLEAR     69  49  48 W3        29.90R                  
$$

ORZ014>016-041-191100-
COLUMBIA GORGE

  
CITY           SKY/WX    TMP DP  RH WIND       PRES   REMARKS
TROUTDALE      CLEAR     60  54  80 W3        29.93R                  
HOOD RIVER     CLEAR     59  52  77 CALM      29.87R                  
THE DALLES     CLEAR     68  53  58 NW12      29.81R                  
$$

ORZ029>031-041-044-049-050-061>064-502-503-505>511-191100-
EASTERN OREGON

  
CITY           SKY/WX    TMP DP  RH WIND       PRES   REMARKS
MADRAS         CLEAR     50  41  71 SE5       29.94R                  
REDMOND        CLEAR     54  42  64 CALM      29.94R                  
BEND           CLEAR     55  45  67 CALM      29.95S                  
PRINEVILLE     CLEAR     52  43  71 CALM      29.95R                  
KLAMATH FALLS  CLEAR     53  47  79 CALM      30.00S                  
LAKEVIEW       CLEAR     52  41  66 SE9       30.06R                  
HERMISTON      CLEAR     70  47  43 SW7       29.79R                  
PENDLETON      CLEAR     64  41  42 CALM      29.83R                  
JOHN DAY       CLEAR     62  41  46 CALM      29.95R                  
MEACHAM        CLEAR     46  40  79 CALM      29.94R                  
LA GRANDE      CLEAR     58  45  62 CALM      29.89R                  
BAKER CITY     CLEAR     52  45  77 NW3       29.91R                  
BURNS          CLEAR     62  37  39 W8        29.96R                  
ROME             N/A     65  26  23 SW5       29.92R                  
ONTARIO        CLEAR     62  49  62 W7        29.80R                  
$$